FW2265 Weather Reports


Display with metric or nautical units.
time (UTC)temp
F
wind
direction
speed
MPH
gust
MPH
rain 1hr
in
rain 24hr
in
rain mn
in
humidity
%
barometer
mb
20260903111238 83 225 1.0 3.0 0.00 0.00 0.00 87 1014.3
20260903110237 83 225 0.0 1.0 0.00 0.00 0.00 86 1014.5
20260903105238 83 225 0.0 0.0 0.00 0.00 0.00 87 1014.3
20260903104336 83 225 0.0 1.0 0.00 0.00 0.00 87 1014.3
20260903103337 83 225 0.0 1.0 0.00 0.00 0.00 87 1014.2
20260903102335 83 225 0.0 1.0 0.00 0.00 0.00 86 1014.2
20260903100437 83 225 0.0 0.0 0.00 0.00 0.00 86 1014.1
20260903095437 83 225 0.0 0.0 0.00 0.00 0.00 86 1014.0
20260903094436 83 225 0.0 1.0 0.00 0.00 0.00 85 1014.1
20260903093437 83 225 0.0 0.0 0.00 0.00 0.00 85 1014.3
20260903092436 83 225 0.0 0.0 0.00 0.00 0.00 85 1014.1
20260903091435 83 225 0.0 1.0 0.00 0.00 0.00 86 1014.1
20260903090435 83 225 0.0 0.0 0.00 0.00 0.00 86 1014.3
20260903090337 83 225 0.0 0.0 0.00 0.00 0.00 86 1014.3
20260903085334 83 225 0.0 1.0 0.00 0.00 0.00 85 1014.3
20260903084336 83 225 0.0 1.0 0.00 0.00 0.00 86 1014.3
20260903083436 83 225 0.0 1.0 0.00 0.00 0.00 86 1014.3
20260903083334 83 225 0.0 0.0 0.00 0.00 0.00 86 1014.3
20260903082335 83 225 0.0 1.0 0.00 0.00 0.00 86 1014.2
20260903081434 83 225 0.0 0.0 0.00 0.00 0.00 84 1014.0
20260903080534 83 225 0.0 1.0 0.00 0.00 0.00 85 1014.0
20260903074634 84 225 0.0 0.0 0.00 0.00 0.00 84 1013.8
20260903073638 84 225 0.0 1.0 0.00 0.00 0.00 84 1014.0
20260903072636 84 225 0.0 1.0 0.00 0.00 0.00 84 1014.0
20260903070635 84 227 1.0 2.0 0.00 0.00 0.00 84 1014.1
20260903070536 84 206 1.0 2.0 0.00 0.00 0.00 84 1014.2
20260903065636 84 191 0.0 4.0 0.00 0.00 0.00 84 1014.2
20260903064637 84 225 1.0 1.0 0.00 0.00 0.00 83 1014.4
20260903060735 84 202 0.0 1.0 0.00 0.00 0.00 84 1014.9
20260903054734 84 225 0.0 1.0 0.00 0.00 0.00 83 1015.0
20260903053737 84 225 0.0 0.0 0.00 0.00 0.00 83 1015.1
20260903052735 84 225 0.0 0.0 0.00 0.00 0.00 82 1015.0
20260903051834 84 180 0.0 1.0 0.00 0.00 0.00 82 1014.9
20260903050835 84 202 0.0 0.0 0.00 0.00 0.00 82 1015.0
20260903044843 84 180 0.0 0.0 0.00 0.00 0.00 81 1015.3
20260903043842 84 180 0.0 0.0 0.00 0.00 0.00 81 1015.3
20260903042841 84 225 0.0 0.0 0.00 0.00 0.00 81 1015.4
20260903041842 84 225 0.0 0.0 0.00 0.00 0.00 81 1015.3
20260903035844 85 225 0.0 0.0 0.00 0.00 0.00 81 1015.4
20260903033842 85 225 0.0 0.0 0.00 0.00 0.00 81 1015.0
20260903032842 85 225 0.0 0.0 0.00 0.00 0.00 80 1014.9
20260903031842 85 225 0.0 0.0 0.00 0.00 0.00 81 1015.2
20260903031742 85 202 0.0 0.0 0.00 0.00 0.00 80 1015.2
20260903030743 84 225 0.0 0.0 0.00 0.00 0.00 80 1015.0
20260903025840 85 211 0.0 1.0 0.00 0.00 0.00 81 1014.8
20260903024843 85 163 0.0 0.0 0.00 0.00 0.00 82 1014.6
20260903023941 85 225 0.0 0.0 0.00 0.00 0.00 82 1014.6
20260903022941 85 225 0.0 1.0 0.00 0.00 0.00 82 1014.4
20260903021942 85 180 0.0 2.0 0.00 0.00 0.00 82 1014.0
20260903020943 85 202 0.0 1.0 0.00 0.00 0.00 83 1014.2
20260903015943 85 247 0.0 0.0 0.00 0.00 0.00 82 1014.1
20260903014942 85 181 0.0 0.0 0.00 0.00 0.00 82 1014.1
20260903011043 86 179 0.0 3.0 0.00 0.00 0.00 79 1013.7
20260903010043 86 180 0.0 1.0 0.00 0.00 0.00 78 1013.4
20260903005941 86 200 1.0 5.0 0.00 0.00 0.00 77 1013.4
20260903004942 86 221 0.0 2.0 0.00 0.00 0.00 77 1013.7
20260903003943 86 205 1.0 2.0 0.00 0.00 0.00 76 1013.7
20260903002042 87 121 0.0 0.0 0.00 0.00 0.00 73 1013.4
20260903001042 88 173 1.0 4.0 0.00 0.00 0.00 71 1013.0
20260902235040 88 173 1.0 3.0 0.00 0.00 0.00 68 1012.9
20260902234042 89 231 1.0 2.0 0.00 0.00 0.00 66 1013.1
20260902233043 89 221 1.0 3.0 0.00 0.00 0.00 66 1013.2
20260902231042 90 223 0.0 4.0 0.00 0.00 0.00 65 1013.0
20260902230043 91 175 0.0 7.0 0.00 0.00 0.00 63 1012.8
20260902224140 92 222 3.0 4.0 0.00 0.00 0.00 61 1012.9
20260902223144 93 204 1.0 3.0 0.00 0.00 0.00 60 1012.8
20260902223041 93 180 0.0 1.0 0.00 0.00 0.00 60 1012.8
20260902221041 94 194 1.0 3.0 0.00 0.00 0.00 59 1012.8
20260902220042 93 223 2.0 4.0 0.00 0.00 0.00 61 1012.8
20260902215042 93 210 1.0 5.0 0.00 0.00 0.00 63 1012.9
20260902214044 92 114 0.0 0.0 0.00 0.00 0.00 63 1013.0
20260902213041 92 212 1.0 3.0 0.00 0.01 0.00 64 1013.1
20260902211140 93 222 0.0 2.0 0.00 0.01 0.00 60 1013.2
20260902210141 94 223 1.0 5.0 0.00 0.01 0.00 57 1013.2
20260902205240 95 222 3.0 5.0 0.00 0.01 0.00 54 1013.2
20260902204241 96 216 2.0 5.0 0.00 0.01 0.00 53 1013.3
20260902203240 96 206 2.0 5.0 0.00 0.01 0.00 54 1013.4
20260902200342 95 185 0.0 3.0 0.00 0.01 0.00 55 1013.8
20260902193440 94 180 0.0 1.0 0.00 0.01 0.00 58 1014.3
20260902192443 93 225 0.0 3.0 0.00 0.02 0.00 57 1014.2
20260902191441 93 225 0.0 2.0 0.00 0.02 0.00 57 1014.5
20260902190443 93 225 0.0 2.0 0.00 0.02 0.00 57 1014.4
20260902185442 94 225 0.0 2.0 0.00 0.02 0.00 57 1014.4
20260902184542 94 237 0.0 1.0 0.00 0.02 0.00 57 1014.7
20260902183641 95 237 0.0 1.0 0.00 0.02 0.00 57 1014.8
20260902182740 95 234 1.0 2.0 0.00 0.03 0.00 58 1014.9
20260902181743 94 225 1.0 2.0 0.00 0.03 0.00 60 1015.2
20260902174944 92 225 0.0 0.0 0.00 0.03 0.00 65 1015.6
20260902173943 91 215 1.0 4.0 0.00 0.03 0.00 68 1015.7
20260902173041 90 202 0.0 1.0 0.00 0.03 0.00 69 1015.7
20260902172042 91 202 0.0 1.0 0.00 0.03 0.00 69 1015.9
20260902171043 91 225 0.0 3.0 0.00 0.04 0.00 69 1016.0
20260902165239 91 202 0.0 1.0 0.00 0.04 0.00 71 1016.1
20260902164241 90 230 1.0 3.0 0.00 0.04 0.00 72 1016.4
20260902163242 90 220 0.0 2.0 0.00 0.04 0.00 74 1016.6
20260902162242 89 202 0.0 0.0 0.00 0.04 0.00 76 1016.6
20260902161243 88 178 0.0 0.0 0.00 0.04 0.00 77 1016.4
20260902160242 88 225 0.0 2.0 0.00 0.04 0.00 77 1016.5
20260902155242 87 225 1.0 3.0 0.00 0.04 0.00 78 1016.6
20260902153242 86 225 0.0 2.0 0.00 0.04 0.00 83 1016.3
20260902152242 85 204 0.0 2.0 0.00 0.04 0.00 84 1016.4
20260902150242 84 218 2.0 5.0 0.00 0.04 0.00 86 1016.2
20260902143240 82 180 0.0 2.0 0.00 0.04 0.00 87 1015.9
20260902142241 81 180 0.0 0.0 0.00 0.04 0.00 87 1016.0
20260902141241 81 180 0.0 0.0 0.00 0.04 0.00 86 1016.2
20260902140242 81 180 0.0 0.0 0.00 0.04 0.00 86 1016.1
20260902135339 81 180 0.0 1.0 0.00 0.04 0.00 86 1016.2
20260902134342 80 180 0.0 0.0 0.00 0.04 0.00 85 1016.0
20260902132342 80 180 0.0 0.0 0.00 0.04 0.00 85 1016.0
20260902131341 80 180 0.0 0.0 0.00 0.04 0.00 83 1015.9
20260902130344 80 225 0.0 1.0 0.00 0.04 0.00 84 1015.5
20260902125440 80 225 0.0 1.0 0.00 0.04 0.00 83 1015.5
20260902124341 80 202 0.0 1.0 0.00 0.04 0.00 83 1015.5
20260902123341 80 180 0.0 1.0 0.00 0.04 0.00 83 1015.4
20260902121441 80 225 1.0 1.0 0.00 0.04 0.00 89 1014.9
20260902120442 80 222 1.0 2.0 0.00 0.04 0.00 91 1015.0
20260902115442 80 202 1.0 2.0 0.00 0.04 0.00 92 1015.0
20260902114541 80 225 0.0 1.0 0.00 0.04 0.00 91 1014.8
20260902113540 80 225 0.0 0.0 0.00 0.04 0.00 91 1014.8
20260902112543 80 225 0.0 0.0 0.00 0.04 0.00 92 1014.8